Regional Weather Roundup
Issued by NWS

Home | Current Version | Previous Version | Graphics & Text | Print | Product List | Glossary On
Versions: 1 2 3 4 5 6 7 8 9 10 11 12 13 14 15 16 17 18 19 20 21 22 23 24 25 26 27 28
000
ASUS45 KBOI 231310
RWRID

IDAHO REGIONAL WEATHER ROUNDUP
NATIONAL WEATHER SERVICE BOISE ID
700 AM MDT TUE AUG 23 2016

NOTE: "FAIR" INDICATES FEW OR NO CLOUDS BELOW 12000 FEET
WITH NO SIGNIFICANT WEATHER AND/OR OBSTRUCTIONS TO VISIBILITY

IDZ012-014-231400-
SOUTHWEST IDAHO


CITY           SKY/WX    TMP DP  RH WIND       PRES   REMARKS
BOISE          CLEAR     50  31  48 SW5       30.07R
CALDWELL       CLEAR     54  33  45 W5        30.08R
MOUNTAIN HOME  CLEAR     55  28  35 NW10      30.06R
$$

IDZ016-017-231400-
SOUTHCENTRAL IDAHO


CITY           SKY/WX    TMP DP  RH WIND       PRES   REMARKS
BURLEY         CLEAR     47  35  63 SW8       30.08R
JEROME         PTCLDY    50  33  52 S8        30.09R
TWIN FALLS     CLEAR     55  23  28 SW12      30.10R
$$

IDZ019>023-231400-
SOUTHEAST IDAHO


CITY           SKY/WX    TMP DP  RH WIND       PRES   REMARKS
IDAHO FALLS    CLOUDY    50  29  44 CALM      30.08R
POCATELLO      CLEAR     59  22  24 SW18      30.08R
REXBURG        PTCLDY    42  30  62 NE7       30.09R
$$

IDZ006-010-011-018-031-032-231400-
CENTRAL IDAHO MOUNTAINS


CITY           SKY/WX    TMP DP  RH WIND       PRES   REMARKS
MCCALL         CLEAR     37  30  75 W3        30.14R
HAILEY         PTCLDY    43  25  49 W12       30.13R
STANLEY          N/A     25  14  63 CALM      30.20R
SALMON         CLEAR    N/A N/A N/A MISG        N/A
CHALLIS        CLEAR     41  18  39 SE3       30.13R
$$

IDZ002-004-006-007-026-231400-
NORTHERN IDAHO


CITY           SKY/WX    TMP DP  RH WIND       PRES   REMARKS
LEWISTON       CLEAR     51  34  52 S6        30.09R
LOWELL           N/A     45  40  82 CALM      30.17R
COEUR D`ALENE  MOCLDY    50  43  76 CALM      30.06R
MULLAN PASS    MOCLDY    44  30  57 SW6       30.13R
$$




USA.gov is the U.S. government's official web portal to all federal, state and local government web resources and services.